GW3650 Weather Reports


time (UTC)temp
F
wind
direction
speed
knots
gust
knots
rain 1hr
in
rain 24hr
in
rain mn
in
humidity
%
barometer
mb
20260503190016 43 0.0 0.0 0.00 0.00 0.00 88 1028.4
20260503183017 44 0.0 1.7 0.00 0.00 0.00 87 1028.6
20260503180017 45 0.0 1.7 0.00 0.00 0.00 88 1028.5
20260503173017 45 0.0 2.6 0.00 0.00 0.00 87 1028.1
20260503053016 65 113 7.0 12.2 0.00 0.00 0.00 61 1025.9
20260503050016 63 113 5.2 13.0 0.00 0.00 0.00 64 1026.4
20260503043017 63 113 6.1 12.2 0.00 0.00 0.00 69 1026.9
20260503040017 61 113 8.7 14.8 0.00 0.00 0.00 71 1027.4
20260503033017 60 113 7.8 14.8 0.00 0.00 0.00 74 1027.7
20260503030016 58 135 5.2 11.3 0.00 0.00 0.00 78 1028.0
20260503023016 56 158 3.5 10.4 0.00 0.00 0.00 85 1028.2
20260503020019 53 180 1.7 7.0 0.00 0.00 0.00 93 1028.5
20260503013018 52 0 0.9 2.6 0.00 0.00 0.00 93 1028.6
20260503010016 50 0.0 1.7 0.00 0.00 0.00 93 1028.7
20260503003039 48 0.0 1.7 0.00 0.00 0.00 92 1028.3
20260503000018 47 0.0 1.7 0.00 0.00 0.00 92 1028.0
20260502233018 46 0.0 1.7 0.00 0.00 0.00 91 1027.6
20260502230017 45 0.0 3.5 0.00 0.00 0.00 91 1027.3
20260502223017 43 0 0.9 2.6 0.00 0.00 0.00 91 1027.0
20260502220018 42 0.0 1.7 0.00 0.00 0.00 90 1026.7
20260502213018 42 0.0 0.0 0.00 0.00 0.00 89 1026.3
20260502210017 42 0.0 0.9 0.00 0.00 0.00 89 1025.9
20260502203017 44 0.0 1.7 0.00 0.00 0.00 89 1025.8
20260502200017 44 0.0 0.9 0.00 0.00 0.00 88 1025.8
20260502193017 44 0.0 1.7 0.00 0.00 0.00 88 1025.9